Volver al catálogo

STARLINK-31711

ActivoComunicacionesVLEO
NORAD 59438·PAYLOAD·🇺🇸 United States

Lanzado Apr 7, 2024 desde Vandenberg Space Force Base

Loading…

Próximos Pases (próximas 24 horas)

TLE

ActualizadoSource: CelesTrak SupGP

Época: Sep 14, 2026, 21:17 UTC

1 59438C 24065T   26257.88729167 -.00037917  00000+0 -11204-2 0  2571
2 59438  53.1561 119.8701 0001281  89.5896  93.4958 15.34406003    11

Sigue STARLINK-31711 en tiempo real con AllMySat

Download on the App Store